Location: Blanot
(47.1713°N, 4.2340°E)
Time: 01:18:50
(UTC+00:00)

Daily predictions for brighter satellites

Satellite Brightness Start Highest point End
(mag) Time Altitude Azimuth Time Altitude Azimuth Time Altitude Azimuth
RESURS DK-1 4.5 00:00:32 10° WNW 00:02:33 15° W 00:02:33 15° W
CZ-4 R/B 3.9 00:03:41 10° NNE 00:08:26 68° ESE 00:09:37 49° SSE
Landsat 4 3.6 00:06:33 10° N 00:10:22 78° WNW 00:10:43 69° SW
Cosmos 1441 Rocket 3.2 00:10:43 67° SW 00:11:09 76° WNW 00:15:06 10° N
Lacrosse 5 1.8 00:10:40 41° SW 00:12:27 85° SE 00:17:34 10° NE
SL-16 R/B 3.9 00:12:01 10° SE 00:17:33 35° ENE 00:23:07 10° N
BREEZE-M DEB (TANK) 3.7 00:09:30 10° WSW 00:19:45 66° SSE 00:23:25 10° E
Meteor 1-4 Rocket 2.7 00:17:23 10° N 00:21:04 64° ENE 00:21:27 59° ESE
Okean 1 4.4 00:19:09 10° N 00:22:53 38° ENE 00:24:06 30° ESE
Cosmos 1607 4.4 00:20:03 21° WSW 00:24:11 58° NW 00:30:27 10° NNE
Cosmos 1933 Rocket 4.1 00:23:25 39° SE 00:24:23 46° E 00:28:33 10° NNE
CZ-4C R/B 4.0 00:18:22 10° WNW 00:24:29 28° WSW 00:26:34 25° SW
Cosmos 1666 Rocket 3.8 00:23:50 46° SW 00:24:46 57° WNW 00:29:05 10° N
Iridium 4 Rocket 3.7 00:24:13 39° SSE 00:26:21 77° E 00:31:42 10° N
NOSS 2-1 (C) 4.3 00:27:05 10° NW 00:32:09 81° NE 00:39:01 11° SE
Helios 1B rocket 2.3 00:28:08 10° NNE 00:32:16 85° WNW 00:33:01 59° SSW
USA 267 3.7 00:32:12 35° SSW 00:33:53 41° SW 00:40:01 10° WNW
Cosmos 1703 Rocket 4.3 00:31:56 10° N 00:36:15 47° ENE 00:38:05 29° SE
NOSS 2-1 (D) 4.3 00:31:48 10° NW 00:36:57 86° NE 00:43:45 12° SE
Helios 1A 4.5 00:38:50 22° W 00:39:01 22° W 00:42:19 10° NW
SeaSat 1 4.1 00:39:37 10° ENE 00:43:18 21° ESE 00:45:02 18° SE
Cosmos 2082 Rocket 4.4 00:40:50 10° SE 00:43:45 14° E 00:46:41 10° ENE
CZ-2D R/B 3.3 00:41:38 10° NNE 00:46:30 34° E 00:49:08 22° SE
Cosmos 1833 Rocket 4.2 00:44:54 19° SE 00:47:18 25° ESE 00:51:47 10° NE
Cosmos 2100 Rocket 4.3 00:45:05 29° SSE 00:48:16 61° E 00:54:24 10° NNE
Meteor 1-25 Rocket 4.1 00:47:42 38° SSW 00:49:57 88° WNW 00:55:34 10° N
Cosmos 1184 Rocket 2.7 00:49:59 75° ESE 00:50:00 75° E 00:53:16 10° NNE
Cosmos 1238 Rocket 3.6 00:50:05 38° SW 00:51:54 61° W 00:56:25 10° N
Cosmos 1656 4.1 00:46:33 10° NNW 00:51:56 60° ENE 00:56:32 14° SE
COSMOS 2406 4.0 00:49:39 28° SSE 00:52:01 40° ESE 00:57:22 10° NE
Cosmos 405 Rocket 3.2 00:52:44 42° SE 00:53:29 50° E 00:57:09 10° NNE
Cosmos 1459 Rocket 4.2 00:52:49 29° SSE 00:55:55 63° E 01:02:01 10° NNE
Cosmos 407 Rocket 4.3 00:55:13 29° SSE 00:57:26 44° ESE 01:02:29 10° NE
Cosmos 1500 4.5 00:58:26 26° SE 00:59:38 32° E 01:03:03 10° NNE
Meteor 1-29 3.1 00:56:44 10° N 01:00:06 59° WNW 01:00:26 55° WSW
Meteor 1-20 Rocket 4.2 00:58:23 36° SSW 01:00:43 72° WNW 01:06:25 10° N
SL-24 DEB 4.2 00:56:53 10° N 01:01:39 82° W 01:03:20 41° SSW
Cosmos 724 4.4 00:59:21 29° SW 01:02:24 69° NW 01:08:14 10° NNE
Cosmos 1802 Rocket 4.3 01:03:02 26° SSE 01:06:41 64° E 01:13:03 10° NNE
Meteor 1-18 Rocket 4.2 01:04:12 10° NNW 01:10:02 74° W 01:12:50 31° S
CZ-4C R/B 3.4 01:11:32 33° SE 01:13:05 65° ENE 01:16:44 10° N
Cosmos 1515 3.6 01:10:57 10° N 01:14:48 83° W 01:15:49 48° S
Okean 1-7 3.0 01:13:46 10° NNW 01:18:11 74° W 01:19:45 39° S
Meteor 1-19 Rocket 4.2 01:18:51 10° NNW 01:24:25 63° W 01:27:06 30° SSW
ADEOS II 3.5 01:20:07 10° NNE 01:24:44 30° E 01:28:37 13° SSE
Cosmos 1725 Rocket 4.3 01:21:06 22° SSE 01:25:11 60° E 01:31:20 10° NNE
NPP 3.9 01:20:25 10° NNE 01:25:47 63° ESE 01:28:51 26° S
Resurs 1-4 Rocket 2.1 01:24:08 10° NNE 01:29:29 79° ESE 01:32:21 28° S
ISS -2.5 01:27:39 10° WNW 01:30:54 43° NNE 01:34:08 10° E
Cosmos 1241 Rocket 4.5 01:25:48 10° NW 01:32:16 84° WSW 01:38:48 10° SSE
Cosmos 1733 Rocket 4.5 01:29:34 15° SE 01:32:27 31° E 01:36:16 10° NNE
AQUA 4.2 01:29:00 10° NNE 01:33:44 58° E 01:36:23 25° S
UNK 3.7 01:33:05 29° S 01:35:22 72° WSW 01:40:02 10° NNW
Abrixas rocket 1.9 01:35:13 25° WNW 01:36:45 77° NNE 01:39:38 10° E
Tsikada Rocket 4.2 01:32:47 10° N 01:39:14 73° E 01:45:05 13° SSE
ATLAS 5 CENTAUR R/B 3.3 01:36:12 10° NNW 01:41:34 49° NE 01:47:47 10° ESE
Gbstr 26 Del rocket 3.2 01:39:29 10° WNW 01:43:33 75° NNE 01:48:24 10° ESE
Cosmos 2061 Rocket 4.0 01:41:58 24° SSW 01:46:01 82° W 01:52:21 10° N
Cosmos 2173 Rocket 4.3 01:43:02 25° SSW 01:46:45 57° WNW 01:52:58 10° N
Cosmos 2369 3.8 01:41:23 10° NNW 01:47:10 82° ENE 01:52:54 10° SSE
Cosmos 1980 Rocket 3.0 01:42:18 10° NNW 01:47:54 53° ENE 01:53:26 10° SE
SL-8 R/B 3.6 01:46:36 22° WSW 01:49:44 80° SSE 01:54:33 10° ENE
Lacrosse 5 3.3 01:51:14 10° W 01:55:53 34° NNW 02:00:33 10° NE
Okean 3 3.4 01:52:11 10° NNW 01:56:22 71° W 01:58:48 24° S
Cosmos 2016 Rocket 4.0 01:53:41 23° SSW 01:57:38 67° W 02:03:52 10° N
Meteor 1-5 Rocket 4.3 01:55:49 23° SSW 01:59:30 78° WNW 02:05:24 10° N
SL-16 R/B 2.9 01:57:01 21° SSW 02:00:58 48° W 02:07:02 10° NNW
BREEZE-M DEB (TANK) 3.3 01:58:56 10° W 02:01:34 49° SSW 02:09:40 10° SE
Meteor 2-4 Rocket 4.1 01:58:57 10° NNW 02:04:40 50° W 02:08:32 20° SSW
Cosmos 1536 2.9 02:02:53 22° S 02:05:27 74° E 02:09:30 10° NNE
Cosmos 1869 Rocket 4.3 02:04:44 23° SW 02:06:49 38° WNW 02:10:54 10° N
Cosmos 2278 3.8 02:01:51 10° NNW 02:07:37 81° ENE 02:13:20 10° SSE
Meteor 1-11 Rocket 3.7 02:04:11 19° S 02:08:13 88° E 02:13:47 10° NNE
Cosmos 1190 Rocket 4.3 02:06:38 22° SW 02:09:56 59° WNW 02:15:09 10° NNE
SL-16 R/B 4.4 02:05:07 10° N 02:10:00 28° NE 02:14:52 10° ESE
H-2A R/B 4.3 02:06:56 10° ESE 02:10:30 25° ENE 02:14:02 10° N
Cosmos 1437 Rocket 3.8 02:08:20 10° NNW 02:11:53 30° W 02:13:22 23° SW
Cosmos 1954 Rocket 4.0 02:08:19 21° SSW 02:11:55 89° ESE 02:17:16 10° NNE
Cosmos 921 Rocket 2.9 02:08:07 10° NNW 02:12:33 86° WSW 02:16:53 10° SSE
Cosmos 1697 Rocket 2.8 02:10:33 10° NW 02:16:04 57° WSW 02:21:32 10° S
Cosmos 2221 Rocket 3.8 02:12:11 10° NNW 02:16:30 52° W 02:19:26 19° SSW
NOSS 7 (D) 4.5 02:17:05 10° NW 02:19:45 37° SW 02:21:20 21° S
SeaSat 1 2.6 02:16:18 10° NNE 02:21:11 64° WNW 02:24:48 18° SW
Cosmos 1378 Rocket 3.9 02:18:19 10° N 02:22:43 65° E 02:27:07 10° SSE
CZ-4B R/B 3.7 02:20:35 10° N 02:25:33 57° WNW 02:29:11 18° SW
IRS-1D 3.5 02:20:44 10° N 02:25:40 70° WNW 02:29:30 17° SSW
CZ-2D R/B 3.0 02:21:41 10° N 02:26:34 38° WNW 02:30:27 16° SW
Cosmos 2082 Rocket 2.2 02:22:31 17° SSW 02:26:58 87° ESE 02:32:43 10° NNE
COBE Rocket 3.9 02:23:54 10° S 02:28:50 66° W 02:33:43 10° NNW
Aureole 1 Rocket 3.9 02:26:01 18° SW 02:29:26 55° WNW 02:35:31 10° NNE
Cosmos 1763 Rocket 3.9 02:24:23 10° NNW 02:29:38 67° ENE 02:34:54 10° SSE
Cosmos 1833 Rocket 3.0 02:26:35 17° SW 02:30:51 57° WNW 02:36:23 10° NNE
Cosmos 1900 4.3 02:29:33 18° SW 02:33:16 89° WNW 02:38:18 10° NE
Meteor 1-23 Rocket 4.3 02:27:36 10° NNW 02:33:21 78° W 02:39:08 10° S
ERS-2 3.8 02:31:21 10° SE 02:34:40 35° ENE 02:38:01 10° N
Meteor 1-28 Rocket 3.2 02:32:11 10° SSE 02:35:52 84° ENE 02:39:37 10° N
Cosmos 1140 Rocket 4.3 02:32:12 15° WSW 02:36:05 39° WNW 02:41:02 10° N
COSMOS 2406 4.2 02:31:43 13° WSW 02:36:21 38° NW 02:41:44 10° NNE
CBERS-1 4.3 02:33:46 10° N 02:38:48 56° WNW 02:43:03 14° SW
Cosmos 468 Rocket 4.0 02:35:32 10° NNW 02:40:53 88° WSW 02:46:12 10° SSE
CZ-2D R/B 4.1 02:39:54 10° NNE 02:44:14 57° E 02:48:25 10° S
Cosmos 2233 Rocket 4.2 02:39:40 14° SSW 02:45:00 56° WNW 02:51:11 10° N
Cosmos 1271 Rocket 3.7 02:42:35 10° N 02:46:16 47° ENE 02:49:53 10° SSE
Cosmos 1674 Rocket 3.7 02:43:28 10° NNW 02:47:44 54° W 02:51:55 10° S
Cosmos 1666 3.8 02:48:04 14° SW 02:50:36 28° WNW 02:53:54 10° NNW
Cosmos 2322 Rocket 3.6 02:46:08 10° NNW 02:51:33 43° NE 02:56:56 10° SE
ATLAS 5 CENTAUR R/B 4.0 02:47:31 10° WNW 02:51:42 35° SW 03:04:14 10° SSE
Cosmos 1850 Rocket 4.1 02:46:38 11° SSW 02:51:53 81° ESE 02:57:15 10° NNE
Cosmos 841 Rocket 4.1 02:52:06 10° NNW 02:57:14 62° ENE 03:02:22 10° SE
Cosmos 540 Rocket 4.2 02:52:20 10° NNW 02:57:26 59° ENE 03:02:31 10° SE
ARIANE 5 R/B 2.5 02:52:51 10° NNE 02:57:57 78° WNW 03:03:05 10° SSW
IRS-1C 4.3 02:53:35 10° N 02:58:51 60° WNW 03:04:05 10° SSW
Cosmos 1782 Rocket 4.3 02:54:47 10° S 02:59:07 55° E 03:03:27 10° NNE
ADEOS II 2.8 02:59:36 10° N 03:04:32 41° WNW 03:09:26 10° SW
Cosmos 1544 3.3 03:01:00 10° S 03:04:34 69° E 03:08:08 10° NNE
USA 238 DEB 4.4 02:59:23 10° S 03:05:42 48° ESE 03:12:15 10° NE
USA 238 4.4 02:59:30 10° S 03:05:47 47° ESE 03:12:19 10° NE
Cosmos 1818 3.6 03:00:45 10° NW 03:06:12 69° WSW 03:11:35 10° SSE
Cosmos 1743 2.8 03:02:42 10° SSW 03:06:28 59° WNW 03:10:16 10° N
SL-08 R/B 3.8 03:02:29 10° SSW 03:06:58 41° W 03:11:34 10° NNW
ISS -3.8 03:04:28 10° WNW 03:07:47 60° SSW 03:11:06 10° SE
Resurs 1-4 Rocket 3.9 03:05:10 10° NNW 03:08:40 18° WNW 03:12:10 10° W
Cosmos 1741 Rocket 4.0 03:04:33 10° SSW 03:09:46 77° WNW 03:15:01 10° NNE
Spot 4 Rocket 4.1 03:04:56 10° NNE 03:10:07 84° WNW 03:15:16 10° SSW
Cosmos 1733 Rocket 4.3 03:06:40 10° SW 03:10:15 26° WNW 03:13:57 10° NNW
Cosmos 1908 Rocket 3.7 03:06:29 10° SSW 03:10:55 65° W 03:15:23 10° N
Abrixas rocket 2.6 03:09:24 10° W 03:12:02 32° SSW 03:14:39 10° SE
Landsat 5 3.3 03:09:37 10° SSE 03:13:31 88° E 03:17:23 10° NNW
Nadezhda 4 Rocket 4.3 03:07:18 10° N 03:13:41 77° E 03:20:00 10° SSE
CENTAUR R/B 3.9 03:10:59 10° S 03:16:06 32° ESE 03:21:58 10° NE
Cosmos 1242 Rocket 3.3 03:18:33 10° NNW 03:21:40 31° W 03:24:47 10° SSW
Sich 1 Rocket 4.2 03:18:09 10° S 03:22:38 62° E 03:27:05 10° NNE
Cosmos 2360 Rocket 3.7 03:18:20 10° NNW 03:23:45 42° NE 03:29:07 10° SE
ATLAS 5 CENTAUR R/B 2.8 03:20:53 10° NW 03:26:19 42° WSW 03:32:29 10° S
